Location: Utrecht
(52.0907°N, 5.1214°E)
Time: 21:31:15
(UTC+01:00)

ISS - Visible Passes

Search period start: 09 February 2026 00:00
Search period end: 19 February 2026 00:00
Orbit: 414 x 429 km, 51.6° (Epoch: 9 February)

Date Brightness Start Highest point End Pass type
(mag) Time Alt. Az. Time Alt. Az. Time Alt. Az.
11 Feb -0.4 07:08:28 10° SSE 07:09:29 11° SE 07:10:29 10° ESE visible
13 Feb -1.4 07:09:09 10° SSW 07:11:50 23° SSE 07:14:33 10° E visible
14 Feb -1.0 06:22:46 10° S 06:24:57 16° SE 06:27:10 10° ESE visible
15 Feb -0.8 05:36:56 10° SSE 05:38:07 11° SE 05:39:18 10° ESE visible
15 Feb -2.6 07:11:06 10° SW 07:14:18 42° SSE 07:17:28 10° E visible
16 Feb -2.2 06:24:33 12° SW 06:27:18 31° SSE 06:30:19 10° E visible
17 Feb -1.9 05:39:35 21° SSE 05:40:20 23° SSE 05:43:04 10° E visible
17 Feb -3.5 07:13:29 10° WSW 07:16:49 67° SSE 07:20:08 10° E visible
18 Feb -0.9 04:54:29 15° ESE 04:54:29 15° ESE 04:55:39 10° E visible
18 Feb -3.3 06:27:29 18° SW 06:29:43 55° SSE 06:33:01 10° E visible
